Regional Weather Roundup
Issued by NWS

Home | Current Version | Previous Version | Graphics & Text | Print | Product List | Glossary On
Versions: 1 2 3 4 5 6 7 8 9 10 11 12 13 14 15 16 17 18 19 20 21 22 23 24 25 26 27 28 29 30 31 32 33 34 35 36 37 38 39 40 41 42 43 44 45 46 47 48 49 50
000
ASUS43 KMKX 222300
RWRWI

WISCONSIN REGIONAL WEATHER ROUNDUP
NATIONAL WEATHER SERVICE MILWAUKEE/SULLIVAN WI
600 PM CDT FRI SEP 22 2017

NOTE: "FAIR" INDICATES FEW OR NO CLOUDS BELOW 12,000 FEET WITH NO
SIGNIFICANT WEATHER AND/OR OBSTRUCTIONS TO VISIBILITY.

WIZ001-002-006>008-014>016-023>028-230000-
NORTHWEST WISCONSIN

CITY           SKY/WX    TMP DP  RH WIND       PRES   REMARKS
SUPERIOR ARPT  SUNNY     70  64  82 NE3       29.80S
ASHLAND        CLEAR     83  73  72 VRB5      29.83F HX  89
HAYWARD        SUNNY     84  71  65 S9        29.86S HX  89
SIREN          SUNNY     87  69  54 S12G17    29.82F HX  90
CUMBERLAND     SUNNY     84  66  54 S10       29.86S HX  86
RICE LAKE      SUNNY     88  65  46 SE12      29.88S HX  90
CHETEK         SUNNY     88  69  54 SE12      29.88R HX  92
LADYSMITH      CLEAR     86  68  54 S7        29.92S HX  89
EAU CLAIRE     NOT AVBL
MENOMONIE      SUNNY     87  66  49 SE10      29.87R HX  89
NEW RICHMOND   SUNNY     89  65  45 SE9       29.84R HX  91
OSCEOLA        SUNNY    N/A N/A N/A S15G21    29.83S
$$

WIZ003>005-009-010-017-018-230000-
NORTH CENTRAL WISCONSIN

CITY           SKY/WX    TMP DP  RH WIND       PRES   REMARKS
MANITOWISH WTR NOT AVBL
ARBOR VITAE    CLOUDY    77  71  81 SE9       29.96F
WOODRUFF       CLOUDY    77  71  81 SE9       29.96F
RHINELANDER    CLEAR     77  70  79 SE8       29.99S
EAGLE RIVER    PTCLDY    74  69  83 S6        29.98F
LAND O LAKES   PTCLDY    74  67  78 S6        29.99F
PHILLIPS       CLEAR     82  71  69 SE8       29.92F HX  85
TOMAHAWK       CLEAR     79  67  67 SE5       29.97S HX  81
MEDFORD        CLEAR     83  66  55 S12G17    29.95F HX  86
MERRILL        CLEAR     82  69  66 SE10      29.97F HX  85
$$

WIZ029-030-035-036-043>047-230000-
CENTRAL WISCONSIN

CITY           SKY/WX    TMP DP  RH WIND       PRES   REMARKS
WAUSAU         CLEAR     85  64  49 S13       29.95F HX  86
MOSINEE        PTCLDY    82  66  57 S9        29.99S HX  85
MARSHFIELD     CLEAR     84  65  52 S9        29.96S HX  86
STEVENS POINT  CLEAR     86  64  47 S7        29.99R HX  87
WAUPACA        CLEAR     91  66  44 SE6       29.98S HX  93
WAUTOMA        CLEAR     87  68  52 S6        29.97F HX  90
WISC RAPIDS    CLEAR     87  66  49 SW8       29.98R HX  89
CAMP DOUGLAS   NOT AVBL
$$

WIZ011>013-019>022-031-037>040-048>050-230000-
NORTHEAST WISCONSIN

CITY           SKY/WX    TMP DP  RH WIND       PRES   REMARKS
ANTIGO         CLEAR     76  68  74 SE12G20   30.01F
SHAWANO        CLEAR     81  66  61 SE7       29.99F HX  83
OCONTO         CLEAR     76  65  67 E5        30.01F
STURGEON BAY   CLEAR     74  64  71 SE13      30.03F
GREEN BAY      CLEAR     82  70  66 SE9       30.00F HX  86
MANITOWOC      CLEAR     78  69  73 E8        30.03R HX  80
APPLETON       PTCLDY    88  63  42 S5        29.99S HX  88
CLINTONVILLE   CLEAR     82  68  61 E6        29.98F HX  85
OSHKOSH        CLEAR     85  70  60 S5        29.98F HX  89
$$

WIZ032>034-041-042-053>061-230000-
SOUTHWEST WISCONSIN

CITY           SKY/WX    TMP DP  RH WIND       PRES   REMARKS
LA CROSSE      SUNNY     92  67  43 S12G24    29.90R HX  95
SPARTA         CLEAR     89  66  47 S14       29.94R HX  91
VIROQUA        SUNNY     86  68  54 S10       29.97S HX  90
BOSCOBEL       CLEAR     91  66  43 VRB6      29.95S HX  93
PRAIRIE DU CHI SUNNY     91  62  38 S7        29.93S HX  91
PLATTEVILLE    CLEAR     88  67  49 S12G17    30.00S HX  91
$$

WIZ056-057-062-063-064-067-068-230000-
SOUTH CENTRAL WISCONSIN

CITY           SKY/WX    TMP DP  RH WIND       PRES   REMARKS
REEDSBURG      CLEAR     88  66  47 S7        29.97S HX  90
BARABOO/DELLS  NOT AVBL
LONE ROCK      NOT AVBL
MINERAL POINT  CLEAR     88  64  45 S9        30.01R HX  89
MADISON        PTCLDY    89  64  43 S8        29.99S HX  90
MIDDLETON      CLEAR     90  63  40 S12G17    30.00S HX  91
WATERTOWN      CLEAR     89  65  44 S8        30.00S HX  91
MONROE         CLEAR     88  61  40 S8        30.01S HX  88
JANESVILLE     CLEAR     91  59  33 S10       30.00S HX  90
$$

WIZ051-052-058>065-066-070>072-230000-
SOUTHEAST WISCONSIN

CITY           SKY/WX    TMP DP  RH WIND       PRES   REMARKS
MILWAUKEE      PTCLDY    86  68  54 SE10      30.02R HX  89
WAUKESHA       CLEAR     90  61  37 S12       30.03S HX  89
MILWAUKEE/TIMM CLEAR     91  61  35 SE8       30.02S HX  91
RACINE         CLEAR     82  68  62 S13       30.04S HX  85
BURLINGTON     CLEAR     90  64  41 S5        30.02S HX  91
KENOSHA        CLEAR     86  66  51 SE9       30.03S HX  88
FOND DU LAC    CLEAR     87  64  46 S8        29.99F HX  88
SHEBOYGAN      CLEAR     82  71  69 S9        30.00F HX  86
WEST BEND        N/A     88  59  37 S6        30.01F HX  87
JUNEAU         CLEAR     87  66  49 S7        30.02S HX  89
$$

LSZ147-162-230000-
LAKE SUPERIOR

STATION/POSITION TIME  TEMP    WIND        PRES    WAVE
                       AIR SEA DIR/SP/G            HT/PER
                 (UTC) (F)     (DEG/KT/KT) (MB)    (FT/S)
W MID LAKE BUOY  2150   59 55   80/  8/ 10 1011.8R   2/ 4
DEVILS ISLAND    2200   64      70/  7/  8 1010.7F
PORT WING        2140   85      30/ 12/ 13 1009.8F
SAXON HARBOR     2240   81     190/  6/ 11 1009.5S
$$

LMZ867-665-643>646-230000-
LAKE MICHIGAN

STATION/POSITION TIME  TEMP    WIND        PRES    WAVE
                       AIR SEA DIR/SP/G            HT/PER
                 (UTC) (F)     (DEG/KT/KT) (MB)    (FT/S)
S GREEN BAY BUOY 2230   74 68  130/ 14/ 16 1016.0F
N MID LAKE BUOY  2150   68 66  130/ 10/ 12 1017.5F   2/ 5
NORTHPORT PIER   2240   70     150/ 12/ 15 1015.9F
KEWAUNEE LAKESHO 2230   71      80/  6/ 10 1016.5F
SHEBOYGAN LAKESH 2200   75     170/ 15/ 15 1015.7F
PORT WASHINGTON  2230   76     190/  3/  6 1017.3S
ATWATER BUOY     2109   71 65  200/  6/  8 1016.7F
MILWAUKEE LAKESH 2230   72     150/ 15/ 16   N/A
S MID LAKE BUOY  2150   73 71  110/  8/  8 1017.1F   0
KENOSHA   LAKESH 2200   78     180/ 11/ 13 1016.3
$$

TC  - TEMPERATURE IN CELSIUS
VSB - VISIBILITY IN STATUTE MILES
WCI - WIND CHILL INDEX
HX  - HEAT INDEX





USA.gov is the U.S. government's official web portal to all federal, state and local government web resources and services.